Tracking 29892 objects as of 21-Nov-2024
HD Live streaming from Space Station
objects crossing your sky now

EXPRESS AM-11

Track EXPRESS AM-11 now!
EXPRESS AM-11 is classified as:


NORAD ID: 28234
Int'l Code: 2004-015A
Perigee: 36,062.9 km
Apogee: 36,110.6 km
Inclination: 12.3 °
Period: 1,451.1 minutes
Semi major axis: 42457 km
RCS: 12.5893 m2 (large)
Launch date: April 26, 2004
Source: Commonwealth of Independent States (former USSR) (CIS)
Launch site: TYURATAM MISSILE AND SPACE COMPLEX (TTMTR)

26 C-band, 4 Ku-band; digital television, broadband internet links and telephone to Russia and its neighbors.
Your satellite tracking list
Your tracking list is empty




NASA's NSSDC Master Catalog

Two Line Element Set (TLE):
1 28234U 04015A   24325.06873764 -.00000207  00000-0  00000-0 0  9996
2 28234  12.2559  27.3795 0005617 257.4887  98.5471  0.99235638 74716
Source of the keplerian elements: AFSPC